Theta_e
324 320 318 312 312 313 309 304 295 294 296 290 288 291 295 299 300 301 301 304 301 305 307 308 308 309 308 305 310 315 315 305 303 297 296 310 332 337 337 337 337 336 335 334 334 333 335 340 341 342 340 341 345 347 347 347 345 342 341 341 340 340 342 342 342 343 343 342 343 344 342 342 344 345 345 343 341 342 342 341 341 341 341 340 340 341 341 341 343 344 344 346 346 346 345 345 344
321 320 315 314 315 308 303 301 292 289 287 285 287 290 297 296 300 300 300 301 303 305 306 313 315 316 317 318 318 314 314 318 317 313 326 332 336 336 338 338 337 335 334 334 333 332 333 337 343 342 339 340 347 347 347 346 345 342 340 340 341 340 341 341 342 341 340 345 344 342 342 341 342 342 342 341 341 341 341 341 341 342 341 341 341 341 341 341 342 343 344 345 346 345 344 344 344
319 318 312 313 310 307 303 300 296 287 287 286 285 290 295 296 298 297 301 304 306 307 310 311 310 311 312 314 311 309 304 322 325 328 328 334 331 333 337 338 337 336 335 333 333 333 333 337 342 342 340 346 346 347 346 345 343 342 341 341 341 341 341 341 341 342 341 341 344 345 345 344 341 337 337 341 342 341 341 340 340 341 341 342 342 341 341 341 341 343 344 345 345 344 343 343 343
316 314 313 309 307 302 296 293 289 288 290 284 285 293 294 296 297 300 303 305 306 303 304 305 305 310 312 310 314 319 317 319 323 328 326 330 332 336 337 337 336 336 335 334 333 333 334 339 342 343 342 345 347 346 346 343 343 343 342 342 341 340 340 343 342 341 345 346 347 345 342 340 339 340 343 342 340 340 340 341 341 341 342 342 342 342 342 342 342 342 343 345 345 344 343 343 342
312 317 312 307 305 302 298 294 291 288 288 286 286 288 297 298 301 302 304 304 303 305 306 305 308 313 316 315 314 308 311 320 325 326 325 330 337 337 336 336 336 335 334 334 334 334 334 340 342 344 342 343 345 346 346 344 342 342 342 340 340 340 341 341 340 340 341 345 345 345 344 343 342 342 343 343 342 342 342 341 341 342 341 342 342 341 342 342 342 342 342 344 344 343 343 343 342
312 312 314 310 305 306 298 294 291 290 291 289 290 296 298 302 303 303 304 304 304 304 305 304 307 306 314 316 316 311 321 317 323 325 328 331 336 337 336 336 336 335 334 334 333 333 334 340 341 343 343 342 342 346 346 344 342 342 342 341 340 339 341 341 340 340 340 343 344 344 343 343 343 344 342 342 342 343 343 342 341 341 341 341 342 341 341 340 340 340 342 342 343 343 342 342 342
311 309 307 303 302 301 293 289 287 289 294 293 296 299 300 301 304 303 302 304 306 307 307 312 317 315 313 315 319 322 324 323 324 326 332 334 337 337 336 335 334 333 334 334 334 334 335 340 343 344 344 343 341 343 346 346 343 342 342 341 340 340 340 340 339 338 339 343 342 342 342 342 342 342 342 342 342 341 341 341 341 341 341 340 341 341 341 341 341 340 342 342 342 342 341 341 341
314 308 304 295 293 296 293 289 290 289 293 295 299 302 301 303 303 304 303 302 303 303 309 313 309 308 308 316 311 320 326 326 326 330 334 335 336 335 335 334 332 333 334 334 334 334 341 340 343 343 343 342 342 344 345 345 346 345 342 341 341 341 340 340 338 338 338 338 340 339 339 339 340 339 339 339 339 339 340 341 340 340 341 340 341 340 340 340 340 341 342 342 341 341 341 341 341
308 308 304 298 294 292 288 292 291 292 290 299 301 304 308 305 304 304 301 302 302 304 304 307 308 305 309 314 313 319 323 328 330 332 334 334 333 334 334 333 332 332 334 334 334 333 334 339 341 343 343 343 343 342 344 344 345 345 342 341 341 341 341 340 339 338 338 337 337 337 338 338 338 338 338 338 338 339 339 340 340 340 341 340 340 340 339 340 340 341 341 341 341 340 340 340 340
306 306 297 296 292 293 288 288 291 292 294 299 301 303 304 303 302 302 301 301 304 304 305 306 306 307 313 313 313 319 321 328 330 330 332 332 333 334 333 333 333 334 334 334 334 335 334 341 339 341 342 343 343 342 344 344 343 344 343 341 341 341 341 340 339 338 337 337 337 340 342 340 338 338 341 341 341 341 341 340 340 340 340 340 340 340 339 339 339 340 340 341 340 340 340 340 340
298 301 301 297 290 289 290 288 288 291 296 297 301 304 305 302 302 300 302 301 303 304 306 315 313 314 315 313 312 318 325 328 329 327 330 331 333 333 333 334 335 335 334 334 335 336 335 336 340 338 340 341 342 343 343 343 343 344 344 342 342 342 341 340 339 338 338 337 337 339 341 342 342 342 342 342 341 341 340 340 340 340 340 340 339 339 339 339 339 339 340 340 339 339 339 339 339
299 297 298 290 288 288 289 289 291 291 294 296 300 302 301 302 300 299 300 302 302 304 306 311 311 316 312 309 312 321 325 327 328 329 329 331 334 334 334 334 335 335 335 335 336 336 335 335 336 340 337 338 339 340 341 342 343 343 343 343 342 341 341 339 339 338 337 337 336 339 340 340 341 341 341 340 340 340 340 340 340 339 338 338 338 338 338 337 338 338 339 339 339 339 338 338 337
299 298 291 291 287 291 289 291 290 292 294 294 299 301 299 300 300 301 302 303 301 302 305 303 318 315 308 309 314 322 324 326 328 329 330 333 334 335 334 333 334 335 335 337 338 337 334 333 335 336 334 334 335 336 337 339 342 343 343 342 341 341 340 340 341 341 341 341 340 339 339 340 340 340 339 339 339 339 338 338 338 338 337 337 337 338 338 337 337 337 337 338 338 338 338 337 337
301 300 295 292 289 289 291 290 290 291 290 294 295 299 300 300 299 302 304 302 301 302 304 312 317 318 313 316 317 316 322 326 328 329 330 333 335 335 332 332 332 334 337 338 337 337 334 333 335 335 334 333 332 333 333 336 339 341 341 341 341 341 341 341 340 340 340 339 338 336 337 338 338 338 338 338 338 337 337 337 337 336 336 336 336 336 336 337 337 336 336 336 337 337 337 337 336
304 302 296 292 290 289 291 292 291 289 291 292 298 299 300 301 300 302 305 302 301 304 305 309 319 312 309 314 314 319 323 326 328 328 329 332 334 334 331 331 332 334 336 336 336 337 336 335 336 335 332 332 332 332 331 334 335 337 338 338 339 339 338 336 336 335 335 335 334 332 332 331 331 332 333 333 334 333 333 332 335 336 335 335 336 336 336 336 335 336 335 335 335 335 335 334 334
303 299 295 295 289 290 291 293 291 291 291 293 297 298 298 300 300 303 303 304 301 305 304 305 310 304 311 316 316 323 325 327 328 328 329 331 333 333 332 331 332 333 334 334 335 336 337 337 337 335 332 331 330 331 331 331 332 332 335 336 336 336 334 333 332 331 329 328 328 328 327 326 326 326 327 327 329 331 330 328 331 335 335 335 335 335 335 335 335 335 334 334 333 333 332 332 331
302 298 294 288 289 290 292 293 292 291 292 294 296 299 298 297 300 300 301 304 304 305 314 315 310 318 318 316 317 326 326 327 326 327 328 329 331 330 331 332 331 331 332 332 333 334 336 336 336 335 333 332 331 332 333 333 331 329 329 330 330 330 330 329 328 324 322 322 322 322 323 323 322 322 323 323 323 325 323 325 330 334 335 334 334 334 335 334 334 334 333 332 331 330 326 327 325
302 295 290 290 288 291 294 294 295 294 295 295 296 297 298 296 299 302 305 307 307 308 311 311 318 318 319 320 325 327 327 326 325 326 326 327 328 328 329 331 331 330 331 330 331 333 334 335 336 334 332 332 332 334 334 332 331 329 328 326 327 327 326 324 323 323 327 321 322 322 322 322 322 321 322 326 322 323 324 324 326 331 333 333 333 333 333 332 332 332 333 333 331 330 322 316 317
297 293 292 291 290 294 297 295 295 295 295 298 297 296 299 299 299 300 301 301 304 305 308 312 314 317 320 322 324 325 325 325 324 325 324 325 326 327 328 329 331 331 331 331 331 332 333 334 336 333 332 332 332 334 334 332 331 330 327 325 325 325 326 325 323 324 321 321 321 321 321 322 322 321 322 322 321 321 323 323 326 329 331 330 331 332 331 331 331 331 331 331 330 322 316 315 315
298 295 291 290 295 295 295 295 296 296 296 296 298 297 299 300 299 300 300 300 301 304 309 309 311 312 317 320 323 324 325 324 324 324 324 324 325 327 327 328 329 330 332 332 331 333 333 333 334 333 332 332 332 334 333 332 332 331 328 325 324 324 324 324 323 323 322 321 322 322 320 320 320 321 324 324 324 320 321 321 323 323 324 325 324 325 328 329 330 329 328 325 320 316 314 314 314
298 297 293 295 296 294 297 297 295 295 298 299 299 296 299 298 298 299 298 299 298 300 311 312 313 315 317 320 322 323 323 323 322 322 323 324 324 326 328 329 329 330 332 332 332 333 333 333 332 333 332 332 332 333 333 332 332 331 329 326 325 324 323 324 324 323 322 322 322 322 321 320 320 321 320 320 319 319 316 316 319 318 316 314 318 312 313 314 313 314 312 311 310 312 314 315 315
301 295 296 296 295 296 295 295 295 294 297 299 297 298 299 298 299 297 301 299 297 300 306 312 319 319 319 320 321 322 322 322 322 321 323 323 323 324 326 325 325 328 329 331 332 333 334 334 332 333 333 332 332 333 333 332 332 331 329 328 326 325 324 324 324 324 323 323 322 322 321 321 320 320 319 318 318 318 317 318 315 314 312 313 314 311 313 311 312 312 311 313 313 312 313 315 314
294 296 295 294 294 296 296 296 295 293 297 297 297 299 298 298 297 297 301 300 299 298 307 314 321 322 322 323 322 321 321 321 321 321 323 323 323 324 325 326 326 326 327 330 331 333 334 334 333 334 333 332 332 333 332 331 331 331 330 329 327 326 325 325 325 324 325 324 323 322 322 321 320 319 319 318 318 318 318 316 315 314 314 314 314 313 311 311 311 312 312 311 311 312 313 311 312
295 294 294 295 294 295 296 295 293 294 296 298 298 298 299 297 296 296 297 296 295 296 303 317 322 322 323 321 321 321 321 321 321 322 324 324 325 325 325 325 326 326 326 329 329 331 332 334 334 334 334 333 333 333 332 331 330 329 329 327 327 326 325 326 326 326 325 325 323 323 322 322 321 319 319 318 318 318 318 318 317 315 316 313 313 311 313 310 310 311 311 310 310 310 311 311 311
295 294 295 295 295 295 294 292 293 295 296 295 297 298 297 297 297 295 297 297 298 302 300 319 321 321 321 321 320 321 321 321 321 322 323 323 324 324 323 324 324 324 325 327 328 329 331 334 335 334 334 333 333 333 331 330 330 329 328 327 327 325 326 325 326 327 325 325 323 323 322 321 320 320 319 319 318 319 318 318 315 317 316 314 312 312 312 312 309 309 309 310 309 310 309 311 310
296 296 294 293 294 295 294 295 294 294 296 296 297 296 295 295 296 296 298 297 297 303 302 319 320 319 319 320 320 320 320 320 321 321 322 323 322 322 322 323 324 323 326 327 327 328 329 332 334 334 334 334 334 333 332 329 329 329 328 327 327 324 326 325 324 325 326 325 323 323 322 322 321 320 320 318 319 318 318 316 317 317 316 314 311 314 312 311 311 309 308 308 309 309 311 312 311
298 295 294 294 293 295 296 295 294 293 295 294 296 294 295 294 295 293 296 297 304 305 306 318 319 318 319 319 320 320 320 320 321 322 321 321 321 322 322 322 323 324 325 325 326 328 327 329 332 334 335 333 334 333 332 330 329 329 328 328 327 325 326 325 324 325 325 325 325 323 322 321 321 320 319 319 319 318 317 316 316 316 316 314 313 314 313 314 312 313 312 311 311 308 309 309 311
296 295 293 294 292 294 294 294 294 294 297 292 295 294 293 294 295 292 295 296 307 307 311 316 317 318 319 319 319 320 321 321 322 321 320 320 321 322 322 323 323 325 324 325 326 327 327 327 330 333 335 334 333 333 332 331 329 330 329 328 327 326 326 325 324 324 323 325 324 323 322 322 321 320 320 320 319 318 317 316 315 314 316 314 314 313 313 313 313 312 310 310 310 310 310 308 308
297 297 292 292 292 293 294 295 295 295 295 294 292 293 292 292 292 294 294 299 305 309 311 315 315 317 317 318 318 319 320 320 320 321 322 323 324 324 323 324 324 324 326 326 327 326 327 327 328 331 334 333 333 333 332 333 331 330 329 329 328 327 326 325 324 324 324 325 323 323 323 322 321 322 321 321 319 318 317 317 314 315 316 315 314 312 312 311 310 310 310 310 310 310 311 309 308
297 297 293 292 291 289 292 294 294 294 294 293 295 286 287 293 295 295 295 300 301 307 308 311 313 315 316 316 317 318 318 317 319 321 322 323 324 324 324 325 324 325 325 326 326 326 328 329 328 330 332 333 333 334 332 332 331 330 330 329 327 327 326 325 325 324 324 324 323 323 323 322 321 322 322 320 319 318 317 317 316 315 313 313 313 311 312 310 310 309 309 309 311 309 309 306 309
292 295 294 288 288 286 292 294 293 293 295 294 294 288 287 290 293 294 294 298 304 305 307 308 309 311 313 314 315 316 317 319 320 321 322 323 324 325 325 326 325 325 325 325 326 327 327 328 328 330 329 332 331 333 331 332 331 330 329 329 328 327 326 326 325 325 324 324 324 322 322 322 321 320 320 321 320 318 317 316 315 317 315 312 312 311 312 310 311 312 307 309 307 308 307 305 306
292 291 287 288 286 287 292 294 293 293 294 293 292 287 289 291 290 289 294 296 301 302 303 304 305 307 310 312 313 314 316 318 319 321 322 323 324 325 325 325 326 325 325 326 326 326 327 328 327 328 328 330 331 332 332 331 331 330 330 326 328 327 326 326 325 325 325 324 323 323 322 322 321 321 319 319 320 319 317 316 316 315 313 313 312 310 310 312 311 311 309 309 309 309 306 310 305
291 289 286 286 287 288 290 294 293 293 292 294 292 286 286 290 289 291 293 296 296 298 299 301 300 302 305 308 311 312 312 314 317 320 321 322 324 325 326 326 326 326 326 326 326 326 326 327 326 328 328 329 330 331 331 330 330 329 329 329 329 327 327 326 326 325 325 324 324 323 322 322 322 322 320 318 319 318 317 317 316 315 313 313 312 310 311 312 312 312 309 308 309 309 307 307 308
285 287 287 289 288 287 287 291 293 293 292 291 292 289 287 288 288 289 293 293 293 294 295 298 299 299 300 303 307 309 310 312 314 318 321 322 323 325 326 324 326 326 326 326 327 327 327 327 327 328 328 329 330 330 330 330 330 330 329 329 328 328 328 327 326 325 325 325 324 324 323 323 322 322 321 319 318 318 318 318 316 316 315 314 313 311 312 310 310 312 311 307 309 308 307 308 308
284 286 286 287 287 288 289 289 291 293 293 292 290 288 291 292 290 290 292 292 293 294 294 295 297 297 297 299 303 306 308 309 313 317 320 322 323 324 325 326 326 325 326 326 327 327 327 327 327 326 327 328 329 329 328 329 328 328 328 328 328 328 328 328 328 326 326 325 325 324 324 323 322 323 323 320 319 317 318 318 319 318 317 316 314 313 311 309 308 308 310 309 306 309 309 308 309
289 289 288 287 286 287 288 291 292 294 290 289 288 290 292 293 292 290 292 291 291 293 291 290 293 296 296 297 300 304 306 309 312 314 318 321 323 323 325 326 326 326 326 325 325 327 327 327 327 327 327 329 329 328 327 327 327 326 326 322 326 327 328 327 329 329 326 326 325 324 324 324 323 322 323 322 320 318 317 317 317 316 316 316 315 313 312 309 309 307 307 308 306 306 307 310 310
291 292 291 288 288 288 289 290 292 293 291 289 289 291 291 292 291 290 291 292 290 289 291 291 291 294 296 296 298 302 304 308 311 311 314 318 321 323 324 325 325 325 325 325 324 325 326 327 326 326 327 328 328 327 327 327 326 325 325 326 326 326 328 328 328 329 329 327 325 325 324 324 323 322 323 323 322 319 318 315 315 313 314 315 315 314 312 311 310 310 308 306 308 308 310 308 305
291 289 288 287 289 287 288 291 291 291 291 288 288 288 290 290 290 290 290 290 293 292 292 292 292 292 295 296 297 298 303 304 304 305 309 312 317 319 321 322 321 322 323 325 324 325 326 326 326 327 327 328 328 329 328 327 328 328 327 327 327 325 326 327 328 328 328 326 326 325 324 324 324 324 323 324 323 321 318 316 315 314 313 315 315 315 310 308 309 309 307 305 304 310 310 308 306
290 287 287 286 287 289 290 290 290 290 291 287 286 288 290 292 292 290 289 291 293 295 295 295 294 293 293 294 296 297 297 301 301 304 307 311 314 317 319 321 322 323 324 324 325 325 325 325 326 326 327 328 328 328 329 328 328 328 328 324 326 320 320 326 328 327 325 325 325 325 324 325 325 324 323 322 323 320 320 318 317 316 315 315 314 313 312 311 310 309 308 310 309 307 309 307 307
288 286 285 284 287 287 286 288 289 289 287 286 286 286 288 289 288 290 290 291 292 294 294 295 294 295 295 294 296 297 297 299 299 300 303 308 312 315 317 319 321 322 322 323 324 325 326 324 325 326 326 327 328 328 326 329 329 327 324 319 319 321 318 319 320 320 325 325 325 325 325 325 324 324 323 322 322 321 320 319 318 315 315 315 315 315 313 312 309 307 309 310 310 305 304 308 307
289 288 287 285 288 288 288 288 289 289 289 287 284 283 286 285 289 289 290 291 292 293 292 292 293 294 295 295 293 296 298 299 299 298 299 302 308 312 316 319 320 320 321 322 324 325 326 325 325 326 326 327 328 326 326 327 323 320 319 316 315 316 314 315 318 322 325 325 326 324 325 324 324 323 322 322 320 321 321 321 319 317 315 313 313 314 314 313 312 310 309 308 310 311 310 309 306
287 288 289 289 289 288 288 289 288 286 286 285 288 280 278 281 283 287 291 289 290 291 292 292 293 294 293 293 295 295 296 297 299 299 299 300 306 311 314 316 318 320 321 322 324 325 325 326 326 326 326 326 327 327 326 326 324 325 321 322 321 318 319 316 319 323 323 323 325 327 323 323 324 323 322 321 321 320 321 321 320 317 314 313 312 313 314 313 311 309 310 311 311 312 313 312 308
284 285 290 290 290 288 287 287 286 282 281 286 286 283 275 280 283 284 286 285 289 290 289 292 293 293 293 294 295 295 295 295 294 295 295 296 301 307 311 314 317 319 321 322 323 324 325 325 326 326 326 326 326 326 325 323 324 325 324 324 324 322 321 321 318 315 321 324 322 323 324 322 323 323 321 321 321 321 322 321 320 318 317 315 313 312 311 312 313 312 313 312 313 312 311 310 311
282 288 290 290 290 289 288 287 285 282 285 289 284 281 278 280 284 285 284 284 285 287 288 289 292 293 294 295 296 296 296 295 296 296 296 297 299 305 310 313 316 318 320 319 321 322 323 323 324 325 325 324 326 325 324 324 324 324 323 323 323 322 321 321 317 316 314 316 319 320 320 321 322 322 322 321 321 322 321 321 320 320 319 318 315 314 315 315 314 313 312 313 313 311 310 310 311
285 290 291 290 292 290 288 287 284 284 285 281 282 285 281 276 281 285 283 285 284 286 288 290 291 292 294 295 296 295 295 295 295 296 296 297 298 301 307 311 315 316 317 319 320 321 322 323 322 323 324 323 323 323 323 323 323 324 324 323 321 321 320 318 310 310 314 312 316 315 318 321 322 322 322 320 320 322 320 322 321 321 320 319 317 317 316 315 314 313 310 310 309 309 309 310 311
289 291 293 292 290 289 287 283 283 284 279 278 281 282 278 277 280 284 282 285 284 287 290 291 291 291 292 293 294 295 295 294 295 296 296 297 299 300 304 308 311 315 316 316 317 317 319 319 319 320 321 322 322 322 322 322 322 321 322 321 321 319 314 310 312 314 313 311 316 315 317 320 322 322 322 322 321 322 322 322 322 321 321 320 315 318 316 314 314 313 312 311 311 310 310 310 310
293 292 291 288 286 285 283 282 280 280 275 279 280 281 281 277 280 285 286 286 287 289 287 288 288 288 290 292 293 294 294 294 295 295 295 296 297 298 298 304 307 307 306 307 311 313 314 317 318 319 321 321 320 321 321 322 322 321 322 321 321 319 314 314 312 312 310 308 315 313 313 315 317 321 321 321 322 322 323 321 322 322 321 317 316 315 316 315 314 314 313 312 311 311 311 310 309
293 287 285 288 286 283 281 280 280 276 274 275 278 280 281 276 277 282 286 285 284 287 289 291 291 291 290 291 292 292 292 293 293 293 294 295 296 296 296 299 300 302 300 302 305 307 311 314 316 318 318 318 318 320 320 321 321 321 321 321 320 319 315 316 316 316 313 313 312 313 308 306 308 310 315 320 321 321 321 322 319 321 319 320 319 318 317 317 315 314 314 313 313 312 312 310 309
288 287 288 285 278 278 277 277 276 275 273 280 278 280 280 280 282 284 286 286 288 287 289 291 291 290 290 291 293 292 292 292 294 295 294 295 297 297 297 298 298 299 301 302 303 305 308 311 313 315 317 316 317 318 319 320 320 319 320 319 318 317 316 317 317 316 312 313 311 309 307 310 303 305 310 315 318 319 319 320 320 320 320 318 318 317 317 315 313 313 313 312 312 311 311 310 309
286 286 283 282 275 274 272 269 270 272 276 278 280 280 279 279 282 289 291 294 294 291 289 289 290 291 293 294 293 292 292 293 295 295 295 296 297 296 295 297 298 299 299 300 301 301 304 308 310 313 316 313 313 313 316 318 318 318 316 316 317 316 316 316 316 315 311 312 311 312 311 311 309 310 309 312 316 318 319 319 319 319 319 318 317 317 316 315 315 314 312 312 312 312 312 311 310
287 286 288 283 279 273 271 271 274 276 276 277 279 277 274 278 282 284 290 292 292 290 289 288 288 290 292 292 292 292 293 293 292 292 295 296 297 295 296 296 296 296 297 297 297 299 299 303 306 308 311 309 310 312 313 315 315 314 313 315 316 315 316 315 313 312 310 310 308 310 309 307 309 307 308 310 307 314 317 315 315 317 316 316 315 314 313 314 314 312 311 312 311 310 310 310 310
286 286 287 283 283 280 277 276 275 273 274 275 276 277 278 282 284 287 288 289 289 289 288 290 292 292 292 293 294 294 294 294 293 292 293 294 295 295 295 296 295 296 297 295 297 297 298 300 301 304 308 307 308 309 311 313 313 312 311 312 313 312 309 310 307 306 308 310 309 310 308 306 306 306 304 304 305 309 311 310 310 313 313 313 312 313 313 312 311 311 310 309 310 310 310 309 308
285 286 282 283 286 283 277 277 279 276 274 274 274 278 280 281 287 292 289 287 289 287 288 287 289 290 291 292 293 293 294 293 293 294 293 294 293 294 296 297 297 297 297 299 299 299 300 299 299 300 301 302 305 307 309 309 310 310 309 310 308 308 309 310 310 307 308 306 307 307 307 307 305 303 303 302 304 304 305 308 309 310 310 312 314 315 314 314 313 312 311 310 308 307 306 306 305
285 280 284 287 290 287 282 276 273 274 274 275 276 277 277 278 279 285 283 287 289 288 289 289 287 287 289 293 294 294 293 293 293 294 294 294 295 297 296 296 297 298 299 298 299 299 300 300 300 301 301 304 303 305 306 307 308 308 307 306 306 309 309 308 308 308 305 306 303 305 304 305 304 302 303 304 305 304 304 303 305 303 305 308 310 311 312 313 313 311 309 309 309 307 307 305 304
285 283 287 287 280 280 279 277 272 271 270 269 275 276 276 278 281 282 284 283 286 289 287 286 289 289 290 291 292 292 292 293 294 294 295 295 295 296 296 297 297 298 298 299 299 300 300 299 299 301 302 303 304 305 304 303 306 308 307 307 306 305 305 305 303 304 304 306 305 303 304 302 301 302 303 304 303 301 299 299 300 300 301 305 305 306 306 305 306 305 304 305 303 304 303 302 302
287 287 287 285 283 281 278 280 276 278 273 271 273 277 278 280 281 281 288 288 290 287 285 287 289 290 290 291 292 293 293 294 294 294 294 295 295 295 295 296 297 298 298 298 298 298 300 300 300 300 301 301 301 303 302 304 301 305 304 304 304 306 304 305 304 305 304 304 303 303 303 304 303 303 304 303 299 297 294 293 294 295 294 294 296 295 297 300 300 301 301 300 299 300 301 301 301
284 283 282 284 282 283 282 281 277 278 270 269 269 273 276 280 284 285 289 290 288 287 290 289 289 289 289 290 292 292 293 294 293 294 294 294 295 295 295 295 296 296 296 296 298 300 299 299 300 300 303 301 302 301 303 303 303 304 305 306 305 305 304 303 302 302 302 301 302 302 303 303 299 300 296 293 293 292 291 290 290 291 292 292 292 291 289 291 292 294 295 297 297 297 298 298 297
286 286 284 286 281 279 278 278 279 275 277 273 269 277 277 284 285 289 289 288 287 287 287 289 289 288 289 290 291 292 294 294 292 292 293 294 295 295 294 293 294 295 296 297 296 297 297 298 299 300 301 302 302 301 303 302 302 304 304 304 304 301 302 302 301 300 301 300 299 297 297 295 295 291 290 291 291 290 289 290 290 290 289 289 290 293 287 291 292 290 290 292 294 294 295 295 294
Wind_Speed
8 7 5 4 1 3 2 4 1 3 2 1 2 0 2 0 2 3 2 1 4 2 1 3 4 3 1 3 10 7 1 2 2 5 2 1 5 10 10 11 8 7 6 4 3 4 4 7 8 7 10 10 13 12 12 12 13 12 12 14 15 15 14 14 15 15 15 15 16 16 16 16 18 18 17 18 17 17 17 17 18 18 18 18 19 19 18 18 19 18 19 18 19 19 18 19 18
4 6 4 2 1 2 1 2 3 3 5 2 2 1 4 1 3 7 5 4 2 3 1 8 12 14 14 13 9 3 4 4 2 1 2 3 10 8 11 11 10 10 6 4 3 4 4 5 7 8 11 12 14 13 12 12 13 12 11 14 16 14 14 14 14 14 15 14 15 17 17 16 16 16 16 17 17 17 17 17 17 17 18 18 18 18 18 18 18 18 18 18 19 19 19 18 18
4 6 6 5 5 4 1 3 1 0 2 1 2 3 1 3 5 3 4 6 7 7 6 10 9 5 3 2 5 2 1 3 7 3 5 9 13 7 10 9 9 9 8 4 4 4 4 4 7 9 10 14 14 13 12 12 13 12 11 12 14 15 15 14 14 14 13 14 14 16 17 16 16 15 15 17 17 17 17 16 16 17 17 18 18 18 18 17 17 18 18 18 19 19 18 18 17
1 2 2 3 1 4 1 2 3 3 0 3 0 1 3 5 4 4 4 7 8 5 2 3 5 2 4 10 4 4 4 2 1 5 7 8 6 10 10 10 9 7 6 4 4 4 4 5 8 8 7 13 14 13 13 12 13 12 11 12 14 13 14 15 14 13 15 15 15 15 17 15 15 16 17 17 17 16 16 16 16 16 17 17 18 17 17 16 16 17 18 18 19 18 18 18 17
4 3 2 4 4 2 1 0 2 2 1 4 4 3 3 4 6 4 2 2 2 4 4 3 5 4 2 7 0 2 4 2 5 1 3 3 10 9 10 10 8 8 6 5 4 4 4 8 8 7 11 10 13 14 13 12 13 12 11 12 12 13 15 14 13 13 14 16 15 15 17 16 15 16 16 17 15 16 16 16 16 16 16 16 17 17 16 16 16 17 18 18 18 18 18 17 17
5 5 2 1 0 2 3 1 1 1 6 5 3 4 5 6 8 4 2 1 1 3 5 4 5 3 3 2 1 3 5 5 3 3 4 8 12 12 11 9 9 8 6 5 4 4 5 8 8 9 10 10 13 14 13 13 13 12 11 11 12 12 15 14 13 12 12 15 16 16 16 15 15 15 15 16 15 15 16 16 16 17 16 16 16 17 17 16 16 17 17 17 18 18 17 17 16
2 4 3 4 2 4 4 2 3 3 7 6 6 6 8 6 7 8 3 4 2 6 1 4 8 5 5 1 3 1 1 2 3 4 4 10 12 12 11 9 9 8 7 5 5 5 6 8 8 9 8 10 12 13 14 13 12 12 12 12 11 12 14 14 13 11 12 15 15 14 14 14 15 15 15 14 15 15 15 15 16 16 16 16 16 16 16 16 16 16 16 16 16 17 17 17 16
1 2 1 2 1 2 0 1 3 5 2 7 4 12 8 8 6 7 6 3 3 3 2 5 3 7 0 2 3 2 3 1 4 7 11 10 11 11 9 9 10 8 7 5 5 4 7 9 9 9 9 9 10 12 13 11 10 9 12 12 12 12 13 14 13 11 11 12 14 13 13 13 13 12 13 14 14 14 14 15 15 15 15 16 15 16 15 15 14 14 15 15 15 14 15 16 16
4 3 0 4 0 2 1 2 3 3 4 2 3 2 9 9 8 9 5 1 2 3 4 4 4 8 2 3 1 2 1 4 8 12 13 12 12 11 8 9 10 8 7 6 5 4 4 9 9 9 9 8 8 12 12 11 10 9 10 13 12 12 13 13 13 12 11 11 12 13 12 12 12 12 12 13 13 13 14 14 14 14 15 15 15 15 14 14 13 14 14 14 14 14 14 14 14
2 2 1 1 3 1 2 4 1 2 2 2 6 10 7 4 4 5 8 4 5 5 1 2 1 6 4 5 1 1 2 5 12 11 11 11 10 9 10 10 10 11 8 7 5 4 4 8 9 9 9 8 8 11 13 11 11 12 10 13 13 12 13 13 13 12 11 11 11 13 14 11 12 13 14 14 14 13 14 14 14 14 14 14 14 14 14 14 13 13 13 13 13 13 13 14 14
1 4 1 2 1 1 3 3 3 4 1 1 0 2 7 5 6 5 5 6 1 5 3 5 7 9 5 1 1 3 0 6 14 13 11 10 10 10 9 9 10 11 10 8 6 5 4 5 10 9 8 8 8 8 9 10 12 12 12 13 13 12 12 12 12 12 11 11 10 13 13 14 14 15 14 14 13 13 13 14 13 14 14 14 13 13 13 12 12 13 12 12 12 12 13 14 15
1 1 1 2 2 6 4 2 1 3 1 1 3 4 3 5 5 6 5 8 2 5 5 4 6 5 5 1 1 0 3 7 12 11 9 9 10 10 9 7 9 9 10 8 7 5 4 4 5 7 8 9 8 8 7 9 11 12 13 13 13 12 12 12 12 11 11 11 11 12 12 13 14 14 14 13 13 13 13 13 14 13 13 13 12 12 12 12 11 11 11 10 10 11 12 13 14
3 1 4 3 4 2 2 1 3 1 0 3 5 4 3 4 7 10 8 7 5 6 3 4 14 3 3 2 2 0 5 8 8 10 8 10 9 8 8 7 8 9 9 9 9 7 5 4 5 5 6 9 8 9 8 8 10 11 11 12 11 11 11 12 11 11 11 11 12 11 11 11 12 13 12 11 11 12 12 11 12 12 12 12 11 11 11 11 10 10 10 9 9 10 10 12 12
2 2 4 3 1 3 4 2 0 5 3 4 1 1 6 3 4 7 9 8 4 6 1 9 7 6 4 3 1 4 7 6 8 8 8 10 8 8 9 7 8 9 9 9 9 8 5 4 5 5 5 5 5 7 8 8 9 9 9 10 10 10 10 10 10 10 9 10 10 10 8 9 10 10 10 9 9 9 9 9 10 11 11 10 11 11 11 10 10 9 8 8 8 9 9 10 11
0 1 2 1 0 1 1 2 7 5 6 3 3 5 2 3 4 5 11 9 5 1 3 2 4 5 6 9 5 10 10 9 8 7 10 10 9 8 9 8 8 8 8 9 9 8 7 6 5 5 4 4 5 5 4 6 10 9 10 9 10 10 10 9 10 10 10 10 11 10 9 10 10 10 10 10 9 9 9 8 8 8 10 10 10 10 10 10 9 8 7 6 7 8 9 9 9
2 3 2 0 2 3 4 2 1 3 4 5 3 5 5 1 1 6 2 4 3 2 1 3 0 1 7 12 8 16 12 10 8 9 11 11 8 7 8 8 7 7 7 8 9 8 7 6 6 5 5 5 4 4 4 4 8 10 9 10 10 10 10 10 10 9 9 10 10 10 10 8 8 7 10 7 9 9 9 7 8 7 9 9 9 9 9 9 8 7 6 5 6 7 8 7 7
1 3 0 2 3 3 3 2 5 4 2 4 1 4 4 3 1 1 1 1 9 0 3 1 0 1 13 6 5 15 11 10 9 10 12 9 9 7 7 7 6 5 5 7 7 7 7 8 8 6 5 5 5 5 4 4 6 8 7 9 10 10 10 9 9 9 8 9 9 9 8 6 5 5 5 5 7 6 9 9 9 9 9 9 8 9 8 8 7 6 5 5 5 6 6 6 7
1 2 3 1 3 2 4 5 8 2 6 5 5 5 9 5 1 2 4 8 4 2 4 2 4 5 1 2 11 14 12 12 11 13 12 11 9 8 8 8 8 8 7 6 6 7 7 7 9 7 6 6 6 5 4 4 5 6 5 5 5 7 8 8 7 5 6 4 7 6 5 5 5 4 4 5 5 5 7 9 9 8 9 8 8 7 7 6 5 5 5 5 5 5 6 4 4
2 2 2 6 3 5 3 2 4 3 4 9 6 4 6 6 8 3 5 1 3 4 3 3 5 5 6 8 12 13 12 12 11 11 14 15 12 13 10 8 9 9 9 7 7 8 8 7 7 7 7 7 7 6 5 4 5 5 5 5 5 5 6 5 4 4 4 4 4 3 4 5 4 4 5 5 4 6 6 9 9 8 7 7 6 6 6 5 5 4 3 4 5 5 4 3 3
2 3 3 4 5 3 4 2 4 3 2 6 8 5 5 6 4 2 5 7 2 9 6 1 3 4 6 8 12 12 12 12 11 11 13 13 12 13 11 11 9 9 10 9 9 7 8 8 8 7 8 8 7 6 5 5 4 5 4 4 5 5 5 5 4 4 4 4 4 4 4 3 4 4 5 8 7 4 5 7 8 8 7 6 6 4 4 4 4 3 3 4 3 3 2 3 3
1 1 3 3 2 1 2 0 3 5 5 12 8 4 5 5 3 4 7 8 4 4 7 11 10 11 9 11 13 11 12 12 10 9 10 12 10 9 11 12 11 9 9 7 7 8 9 9 8 7 7 7 7 6 6 5 5 4 4 4 5 5 5 5 5 4 4 4 4 4 3 3 3 4 4 5 4 4 5 4 4 4 3 3 3 2 1 1 2 2 1 2 1 2 3 3 3
0 5 4 4 0 1 7 3 3 3 4 3 7 11 8 2 1 5 13 11 9 11 10 5 14 15 15 14 13 11 12 13 12 11 12 12 13 11 8 6 4 6 7 8 9 8 9 9 9 7 7 7 8 7 7 7 7 6 6 5 5 4 5 5 5 5 5 4 4 4 4 4 4 4 3 4 4 4 4 4 3 3 2 3 1 2 1 1 2 1 0 0 1 2 2 3 3
3 4 3 5 2 2 2 4 3 1 3 6 9 6 5 6 2 4 13 10 4 4 8 9 14 18 18 17 16 14 13 14 13 14 13 12 11 10 10 9 9 9 8 9 9 8 9 8 9 8 8 7 8 7 6 6 6 6 6 6 6 5 5 5 5 5 5 4 4 5 6 5 5 4 4 4 5 4 4 5 4 3 4 3 2 3 1 1 1 1 0 1 2 2 3 3 3
2 5 3 3 3 4 2 3 5 1 7 10 2 5 7 7 6 2 6 4 3 2 7 11 11 10 11 13 15 18 17 17 17 15 14 14 13 13 11 10 8 6 7 8 9 8 9 10 10 10 9 8 7 7 7 7 6 6 6 6 6 6 6 6 6 6 4 5 5 6 6 6 6 5 4 4 5 4 4 4 3 4 3 3 3 2 3 2 2 1 1 1 2 2 3 2 1
4 3 3 3 0 2 2 3 3 1 1 1 4 6 6 6 4 5 7 6 2 1 5 8 8 10 11 14 14 14 15 13 13 12 8 6 7 6 5 5 5 6 8 8 8 8 9 9 9 11 10 10 8 8 7 7 6 6 6 6 6 6 6 6 6 6 5 5 5 6 6 6 5 5 6 5 4 5 4 4 4 5 4 4 3 3 3 3 2 2 2 3 2 2 1 3 2
2 3 5 4 2 1 1 1 2 2 1 3 5 1 0 1 2 4 6 5 2 2 8 11 11 11 13 13 14 14 13 14 12 11 13 9 7 8 8 7 7 8 10 8 8 8 8 9 10 11 11 11 9 8 7 7 7 7 7 7 7 6 6 6 5 5 5 5 5 6 7 6 7 6 6 5 5 5 5 4 4 5 5 3 4 5 5 3 4 2 1 2 2 3 2 3 0
5 12 7 6 4 1 1 1 1 3 1 1 5 1 1 3 2 4 3 4 3 6 9 10 14 14 14 11 12 12 14 15 15 12 7 7 8 11 10 8 9 9 8 9 8 8 7 8 9 10 10 10 9 9 8 8 7 8 7 7 6 7 7 6 6 6 6 6 6 6 6 6 6 6 5 6 5 5 5 5 5 5 5 5 5 5 4 5 4 4 4 3 4 3 3 3 1
9 8 6 1 2 2 1 1 1 1 0 1 6 1 1 3 1 6 4 3 5 10 9 11 11 13 12 12 12 11 12 13 11 9 14 13 12 11 11 11 11 9 10 11 9 7 7 8 10 10 10 10 10 10 9 8 8 8 8 7 7 7 6 6 6 6 6 6 6 6 6 6 5 6 6 5 6 6 5 6 6 5 6 6 5 5 5 4 5 4 3 3 3 2 2 2 2
5 6 7 3 3 1 1 3 2 0 1 2 2 3 1 1 6 5 4 5 5 9 11 12 12 10 10 10 10 9 12 10 9 10 13 13 11 10 13 11 11 11 8 10 10 8 10 9 9 10 10 10 11 11 10 8 8 8 8 8 7 7 7 6 6 6 7 7 6 6 6 5 6 6 6 6 6 6 6 6 5 6 6 6 5 4 4 4 2 2 2 1 1 0 0 1 2
3 1 3 5 1 3 5 0 0 2 1 1 0 4 7 11 11 2 1 8 4 5 8 10 10 9 9 9 10 10 7 6 10 13 12 11 11 12 13 11 11 11 9 8 10 11 10 7 7 7 10 11 12 10 9 8 8 7 8 8 7 8 7 7 7 6 6 6 6 6 6 5 5 6 6 6 5 5 5 5 6 6 5 5 5 4 4 4 4 3 3 2 3 2 3 2 1
3 3 0 4 0 3 2 2 2 4 0 1 1 5 7 8 9 6 3 7 10 8 7 8 7 8 8 9 9 10 10 11 14 14 12 11 11 11 13 11 10 11 8 8 12 13 11 10 8 7 9 10 11 10 11 10 8 7 7 7 8 8 7 7 7 6 6 6 6 6 6 6 6 5 5 7 6 6 5 5 5 6 5 4 5 4 5 4 4 5 3 3 2 2 2 2 2
2 1 5 1 4 4 4 2 5 7 1 1 3 2 9 6 6 3 6 7 8 9 8 8 8 8 8 8 10 10 11 10 11 11 11 12 11 11 12 14 11 10 12 12 11 11 12 11 10 9 9 11 11 11 10 10 9 8 7 7 7 7 7 7 7 7 7 6 6 6 5 5 6 6 5 5 6 6 6 6 6 4 4 5 5 4 3 5 5 4 4 3 4 4 2 4 2
2 3 2 2 3 5 3 3 4 4 3 0 3 5 3 4 4 3 4 9 8 9 9 9 9 9 9 9 9 9 8 7 9 11 12 12 11 11 12 13 12 13 12 12 12 11 12 12 11 12 12 12 11 10 10 8 8 8 8 8 8 7 7 7 7 6 6 6 6 6 6 6 5 6 6 5 5 6 6 6 6 5 4 5 5 4 5 5 4 5 4 3 4 5 4 4 4
5 0 4 3 5 3 3 2 2 3 4 5 1 2 6 3 5 3 2 5 7 8 9 10 9 8 9 8 8 9 9 10 13 13 14 13 12 13 12 12 12 11 11 12 13 14 14 12 11 12 11 11 11 10 10 9 8 8 7 7 7 8 8 7 7 6 7 7 6 7 6 6 6 6 6 6 5 5 6 6 6 5 5 5 5 5 6 4 4 4 5 3 4 3 4 4 6
5 2 3 4 1 3 4 3 3 6 2 6 3 4 10 11 5 2 3 2 6 9 10 10 10 9 8 8 8 9 10 11 14 13 14 15 14 13 12 11 11 10 9 12 12 12 11 11 10 11 11 11 10 10 9 8 8 7 6 7 7 8 7 7 7 7 7 7 7 7 7 7 7 6 7 6 6 5 5 5 6 6 6 6 5 5 4 4 3 3 5 5 3 4 4 4 6
6 5 5 4 3 3 3 6 2 8 5 5 5 8 12 12 8 3 4 2 6 7 3 4 7 7 7 8 9 9 10 14 13 11 12 11 12 13 12 11 11 10 10 10 11 11 11 10 9 10 10 11 9 8 8 8 7 8 8 5 7 8 8 8 8 8 7 8 8 8 7 7 6 7 7 7 6 6 5 5 5 4 5 5 6 5 5 5 6 4 5 5 4 3 3 4 3
3 0 2 6 7 5 3 2 1 1 2 7 8 10 9 8 7 5 4 1 2 5 7 8 7 8 9 9 10 12 11 16 12 9 9 12 13 11 11 10 10 10 11 11 11 12 12 13 12 13 11 10 9 9 9 9 9 8 7 10 10 8 9 8 8 8 8 8 8 8 8 8 7 7 7 6 7 7 6 5 5 4 5 5 5 6 7 7 6 6 5 3 5 4 4 3 2
7 5 3 5 3 7 4 0 0 1 4 2 1 4 9 10 7 6 1 3 8 10 10 8 9 9 9 11 12 12 14 5 0 4 7 7 8 9 8 9 9 11 11 11 13 13 13 12 13 13 10 11 11 12 10 9 10 11 10 10 9 8 8 9 10 8 9 7 8 8 8 8 8 8 7 7 7 7 7 6 6 6 5 5 6 6 4 4 4 4 3 2 3 5 4 3 3
6 6 5 4 7 4 3 1 2 1 2 7 0 4 10 10 8 4 4 7 7 9 11 13 12 10 10 11 12 11 6 10 7 7 8 9 10 10 10 10 11 14 13 14 13 13 12 12 12 12 11 12 12 11 11 11 9 8 9 7 9 5 5 6 6 6 5 7 8 9 8 8 9 8 8 8 7 6 7 7 7 6 6 6 5 5 4 5 5 6 5 6 4 2 4 0 3
7 4 4 7 3 2 4 2 1 1 2 1 0 1 8 6 4 7 7 7 7 9 9 10 7 12 13 15 15 13 13 13 11 10 12 12 10 10 10 12 13 11 11 10 12 14 12 12 11 12 12 12 11 11 12 11 11 8 5 4 4 5 5 4 4 4 6 7 8 8 8 8 8 8 8 8 7 6 6 7 6 6 6 6 7 6 6 6 5 4 5 7 4 3 2 5 4
5 5 4 5 3 4 4 4 1 0 0 2 2 3 7 4 6 5 6 9 7 7 5 6 8 9 9 5 4 9 15 15 13 10 9 8 9 12 15 13 9 12 13 13 14 13 11 13 13 14 12 13 11 12 13 10 6 5 4 2 2 2 2 4 4 6 8 8 8 9 9 7 8 8 7 8 7 7 7 6 6 7 6 6 6 7 7 7 8 7 7 5 6 6 5 4 3
8 5 9 8 5 4 1 2 5 1 2 2 3 2 5 4 5 10 10 1 5 7 5 9 10 10 8 9 13 11 10 9 12 14 14 14 14 12 10 11 12 13 14 14 13 13 12 12 13 12 10 10 12 12 13 10 10 10 8 8 8 7 8 6 11 13 10 10 12 7 5 8 8 7 7 7 7 7 7 7 7 6 6 6 6 7 7 6 5 6 7 7 7 7 7 5 4
6 7 7 8 6 3 4 3 2 1 3 2 1 8 6 5 3 5 4 2 9 6 4 10 9 10 9 12 13 12 12 12 9 7 6 7 10 10 12 13 14 14 15 10 11 12 13 12 13 13 11 11 11 11 11 10 9 10 13 14 12 12 12 10 7 4 6 7 4 6 7 6 7 8 7 7 7 7 7 7 7 7 7 7 6 6 6 6 6 7 6 6 7 7 5 6 6
7 2 4 5 5 5 6 6 4 1 1 1 3 2 4 6 7 6 1 3 7 8 8 11 11 10 12 13 14 13 11 11 11 13 12 11 11 13 16 16 14 16 11 9 11 10 13 12 11 12 11 11 10 9 11 11 12 12 12 12 11 11 12 11 6 5 3 4 6 7 5 6 6 7 7 6 7 7 7 7 7 7 7 7 7 7 7 7 6 4 5 7 6 5 6 7 6
3 3 8 7 9 8 7 5 3 0 0 5 1 1 1 5 8 5 0 3 5 8 10 11 12 13 13 13 13 11 11 11 11 11 12 12 12 13 13 12 14 11 10 12 12 11 11 11 11 10 11 9 8 10 11 11 12 12 11 10 10 9 8 6 4 4 5 4 6 5 5 5 5 6 6 6 6 6 7 7 7 7 7 7 7 6 6 6 7 7 6 6 6 6 6 7 6
5 4 3 5 6 5 4 4 4 0 1 7 5 2 3 7 6 4 2 1 5 8 10 10 10 11 11 13 14 14 10 8 8 11 10 10 11 12 12 9 7 11 10 9 8 7 8 8 9 10 11 9 8 9 10 11 11 10 10 10 12 9 5 4 4 5 5 5 6 6 5 5 5 5 5 5 6 6 6 6 6 7 6 6 6 7 7 6 6 7 7 7 7 7 5 6 8
4 7 5 4 6 3 2 5 2 2 4 8 5 3 3 5 5 7 5 5 8 8 7 7 7 6 7 9 10 9 8 8 8 9 8 8 6 6 5 9 9 6 6 5 7 7 6 8 9 11 12 9 9 10 11 12 12 11 11 11 12 10 7 6 6 6 5 4 6 5 5 5 4 5 5 5 6 6 6 6 6 7 7 6 6 5 7 7 6 6 6 6 6 7 6 7 8
8 3 4 6 2 6 3 2 4 3 8 5 1 2 2 7 4 6 8 4 3 5 6 8 9 9 7 7 8 8 7 7 7 6 8 7 5 6 5 7 7 7 5 6 6 6 7 8 9 11 10 10 9 10 11 12 11 12 10 10 11 9 8 8 10 9 8 8 6 6 5 4 4 3 3 4 5 5 5 5 5 4 5 5 6 6 5 6 6 6 6 7 7 8 6 6 5
3 5 7 8 2 2 4 1 4 7 4 1 1 1 1 10 6 8 8 7 7 8 9 8 7 8 7 7 8 6 6 6 8 8 7 5 7 7 8 8 6 7 10 9 9 8 8 8 9 11 13 10 10 10 11 11 10 11 11 10 9 7 9 9 9 9 7 7 6 5 5 6 4 4 4 4 4 5 5 5 5 5 5 5 5 4 4 4 4 4 4 4 4 4 5 6 7
5 9 7 7 3 4 5 3 1 5 5 5 1 0 4 3 7 13 17 18 16 7 6 9 9 10 9 8 5 3 4 5 6 6 6 6 7 6 5 6 7 7 7 9 8 8 7 8 9 11 13 9 8 8 9 10 11 9 8 8 8 8 9 9 8 8 6 6 6 7 7 6 6 6 5 6 6 6 5 5 5 5 4 3 4 4 4 4 4 4 5 6 6 7 7 8 8
6 3 9 7 6 5 5 3 6 7 6 1 3 1 7 4 4 3 9 8 9 8 7 6 7 8 7 5 4 3 3 4 4 4 5 6 6 5 5 5 4 4 5 5 5 7 6 7 8 10 10 8 8 9 8 10 8 7 7 7 8 7 9 8 7 6 6 7 5 6 6 4 5 5 6 5 4 5 5 4 4 5 4 3 2 3 3 4 4 5 5 5 5 3 3 4 4
3 3 4 5 9 5 5 6 4 3 1 1 1 6 4 5 3 8 7 9 8 6 6 3 5 4 3 4 5 5 5 4 4 5 5 5 4 4 4 4 4 4 4 4 5 5 6 8 6 7 9 7 7 7 7 8 7 7 7 8 8 8 6 5 4 4 5 6 6 6 6 5 5 4 4 4 4 5 5 4 4 4 4 4 3 1 1 1 1 2 3 3 4 2 3 4 5
4 4 6 5 3 6 4 3 1 2 2 7 2 6 5 8 8 10 7 3 7 4 5 4 5 3 2 5 6 5 5 5 4 4 5 5 3 4 4 5 5 5 5 6 6 6 6 5 5 5 5 4 5 6 6 6 6 7 7 6 6 6 6 7 7 6 6 5 5 5 5 5 4 4 4 3 3 3 3 4 4 4 4 4 4 5 5 4 4 4 4 4 4 3 3 3 3
6 4 8 2 2 4 4 5 1 1 6 6 2 6 4 1 5 4 4 5 8 6 8 6 5 3 5 7 7 7 7 5 4 4 4 4 4 5 4 4 5 6 6 5 6 5 4 5 5 6 5 7 5 5 6 6 7 6 6 6 5 6 7 6 6 6 5 5 4 5 4 5 4 3 3 3 3 4 3 3 3 3 3 2 3 3 4 5 6 6 5 4 4 4 5 4 3
4 6 3 7 5 5 1 3 2 2 3 3 2 1 4 5 6 5 4 3 6 6 4 4 7 6 8 7 8 7 6 5 5 5 5 4 5 5 4 5 4 4 4 5 4 4 3 3 4 5 6 5 5 5 4 4 5 5 6 6 6 5 4 5 4 4 5 5 6 5 5 4 3 4 4 5 4 3 3 3 4 4 2 3 2 3 2 2 2 3 3 3 3 3 4 4 4
0 1 1 1 2 2 4 7 3 5 6 1 6 1 6 7 7 7 7 7 10 4 4 6 9 10 8 8 8 8 7 6 5 5 4 4 4 4 4 4 4 4 4 4 4 3 4 4 4 4 3 4 4 5 5 5 4 5 5 4 4 5 5 5 5 6 5 5 5 5 5 5 5 5 4 4 4 5 4 4 3 3 2 1 0 0 0 1 1 2 3 3 3 2 3 4 4
1 1 3 1 0 2 3 1 4 4 4 4 2 4 5 7 8 8 10 11 8 5 8 6 6 6 7 7 8 7 7 6 5 5 4 4 3 1 1 1 1 1 1 3 4 5 4 4 4 4 6 4 5 4 5 5 5 5 6 6 6 5 5 5 5 5 5 4 4 5 4 4 5 4 5 4 4 3 3 4 3 3 2 2 1 0 1 0 1 1 1 2 3 2 3 3 3
9 11 10 11 8 4 6 9 2 2 1 4 2 10 5 8 2 9 9 8 5 5 4 7 8 7 7 7 7 7 6 5 4 4 2 2 1 1 1 2 1 3 2 4 2 3 3 4 4 4 4 5 5 4 5 5 4 5 5 6 5 5 5 5 5 4 5 5 5 4 6 4 5 2 3 5 5 4 4 4 4 3 2 2 2 3 2 3 2 0 0 1 1 1 2 3 1
Wind_Direction
343 340 325 330 60 97 70 2 78 311 52 255 322 38 189 118 216 77 104 23 58 296 319 13 48 46 130 168 127 125 40 142 213 132 212 219 125 121 124 126 126 120 128 140 137 119 111 114 119 120 115 105 108 107 109 107 102 102 103 103 102 103 101 99 94 91 94 97 98 93 90 88 87 87 87 89 88 87 86 84 83 85 83 82 82 84 87 91 87 78 72 62 61 63 73 82 84
336 331 333 345 93 74 287 114 95 353 40 25 263 101 170 314 72 139 137 116 175 124 132 87 70 77 86 113 125 110 36 358 200 165 80 114 112 117 132 135 137 134 135 136 134 122 112 121 125 114 122 123 108 109 112 108 107 109 107 105 106 108 108 106 106 101 93 88 89 91 91 90 90 90 91 94 92 89 87 86 86 83 83 84 84 86 90 93 86 78 69 62 64 69 78 83 84
338 1 359 23 24 71 50 35 288 63 64 354 277 204 308 102 149 220 160 121 130 130 126 97 99 81 77 83 34 72 245 325 71 74 103 137 121 149 138 135 136 133 135 138 136 126 125 129 119 116 122 109 114 116 115 111 111 112 109 105 110 107 97 95 93 93 95 97 96 96 94 91 90 92 95 91 89 87 87 86 86 85 85 85 84 84 90 95 88 77 71 65 67 73 80 82 84
21 49 76 49 330 26 63 23 92 124 153 214 285 294 119 157 181 183 168 150 146 145 156 43 53 310 116 63 114 83 76 79 30 130 131 157 146 142 139 137 136 129 127 134 142 132 134 133 121 127 129 116 119 121 115 111 113 113 108 103 100 105 104 96 96 94 95 97 98 100 97 98 101 97 89 90 89 90 89 88 85 85 85 85 87 88 88 91 85 78 73 68 70 76 80 81 81
49 0 75 88 105 354 85 182 136 100 349 204 173 276 181 181 160 165 193 218 193 129 88 119 78 348 56 121 151 129 198 120 136 129 103 99 128 139 137 138 135 133 137 144 141 138 137 132 127 123 114 115 118 119 114 114 113 111 107 107 110 109 104 99 99 98 94 97 100 99 97 95 91 93 90 88 90 89 87 85 85 84 85 85 86 87 90 91 86 81 77 73 72 75 79 81 81
64 53 3 87 112 180 51 25 336 238 220 149 123 204 194 180 149 170 169 112 30 58 117 68 144 171 30 334 161 108 142 139 178 91 132 148 143 141 143 141 134 137 142 142 144 138 136 133 131 123 120 118 119 116 119 115 113 110 108 106 104 103 103 106 104 102 101 91 91 94 92 91 93 90 91 92 92 89 88 88 88 87 85 85 86 86 89 94 89 83 78 76 74 74 77 78 80
3 35 355 23 6 56 173 145 224 206 275 158 182 167 181 203 161 128 129 90 5 54 359 123 118 106 79 316 29 62 280 199 99 152 137 149 138 142 146 142 135 139 143 147 140 138 141 139 132 124 122 121 125 117 123 119 114 116 114 110 107 102 103 104 105 106 104 99 95 93 93 96 98 98 97 93 89 91 90 87 86 86 84 84 82 83 86 92 90 80 76 72 67 71 78 79 81
61 103 308 105 221 47 123 204 240 159 276 168 201 154 186 179 171 127 157 105 190 96 70 126 157 95 200 15 144 269 0 181 135 120 127 138 141 145 144 140 133 142 145 145 141 145 144 139 131 128 123 122 127 122 118 117 113 109 120 115 110 107 105 104 104 101 93 94 102 99 94 92 95 97 98 99 98 93 89 88 87 86 86 83 83 84 86 89 86 79 77 69 64 63 68 77 82
2 80 359 80 196 35 43 250 254 237 282 104 162 227 175 174 169 133 134 208 82 102 137 148 183 92 222 52 61 276 338 104 104 126 133 141 147 146 141 140 140 146 147 144 143 146 141 139 137 130 122 119 125 127 121 123 120 112 119 120 114 110 108 106 106 102 99 100 98 103 104 106 97 104 105 101 98 93 94 92 88 87 87 86 85 85 87 87 82 80 78 68 64 63 62 68 80
24 75 290 148 129 235 352 299 46 231 221 193 171 173 169 187 165 139 136 117 157 124 115 107 115 114 134 101 103 14 127 128 122 125 140 146 144 139 141 146 145 144 146 145 145 141 146 141 135 131 129 128 123 125 123 127 133 123 113 117 116 111 111 110 108 106 105 105 108 86 70 87 112 101 97 96 95 94 93 91 88 87 88 89 88 87 86 85 84 85 79 68 65 61 62 69 83
24 10 149 88 42 152 195 265 269 312 135 57 269 208 180 164 145 140 139 138 118 130 169 130 53 120 107 116 225 252 258 145 134 146 151 145 140 143 143 147 145 147 146 149 145 140 147 142 138 137 133 125 122 116 121 127 132 128 113 114 116 114 115 117 114 111 111 109 106 88 85 87 91 92 92 95 98 100 97 92 90 89 83 85 87 87 86 83 83 84 73 64 62 59 61 70 75
36 21 5 111 178 165 228 191 272 264 294 95 208 192 210 168 132 123 127 128 176 127 170 155 170 143 79 109 220 357 107 158 146 147 139 138 142 145 141 145 147 150 146 147 142 142 143 145 139 141 134 126 121 118 114 123 130 130 119 117 119 118 119 120 119 116 115 118 114 95 92 100 96 91 92 91 89 91 91 91 91 89 89 88 90 90 88 86 83 79 69 61 59 60 64 68 72
117 126 78 101 227 145 218 198 247 208 117 231 173 213 139 159 170 160 155 135 151 128 173 234 146 96 113 180 255 217 150 182 155 141 130 140 142 140 135 142 150 145 144 144 146 147 148 146 144 138 136 126 123 123 120 119 128 127 125 121 121 121 123 120 113 110 105 103 97 95 95 93 92 94 92 88 88 88 89 90 93 92 92 92 94 93 94 91 85 81 68 56 54 56 62 65 64
113 176 126 212 75 130 144 205 95 151 242 235 255 146 158 177 211 160 132 126 178 143 277 138 129 123 72 90 219 196 194 188 170 133 126 137 136 139 136 141 148 147 149 147 151 154 154 151 143 138 136 122 121 126 129 119 116 121 123 125 124 123 118 114 112 110 107 100 97 95 87 88 88 89 89 81 80 82 84 87 94 97 94 96 97 99 99 95 89 80 69 53 50 52 54 59 56
235 165 85 119 338 110 255 137 194 170 208 186 199 140 155 300 140 155 147 140 200 173 106 34 175 115 207 160 207 199 187 184 168 125 125 132 134 139 139 146 148 149 151 151 154 157 161 154 146 145 141 133 135 130 128 122 120 120 120 122 121 116 117 117 115 113 112 109 106 102 92 94 91 89 89 89 87 86 82 80 87 98 105 103 103 104 103 98 93 82 67 58 49 51 51 47 45
162 86 83 114 261 171 263 174 76 110 241 183 238 155 97 20 71 135 215 139 144 24 107 171 2 215 161 171 197 180 174 169 157 124 126 133 135 136 140 147 148 155 157 154 157 164 163 158 155 150 147 145 139 134 133 129 128 128 127 127 125 124 124 122 119 118 119 116 116 111 105 97 91 90 91 88 91 89 86 85 86 95 106 107 107 107 105 105 94 83 73 65 56 49 46 41 30
50 79 76 40 261 165 251 163 146 214 238 227 252 187 135 151 234 20 316 42 121 74 49 325 270 24 168 193 179 155 161 156 130 125 127 137 142 144 144 147 148 153 162 165 160 164 167 169 165 156 157 150 141 136 131 130 132 124 123 128 130 131 130 129 127 126 124 127 123 121 111 105 105 100 92 98 94 97 97 92 91 89 93 97 101 106 103 97 88 83 74 66 58 45 30 32 27
63 155 121 222 199 154 213 175 190 223 144 212 180 206 126 137 170 166 74 37 71 59 66 329 17 16 191 322 145 150 151 151 149 135 144 149 155 154 159 161 158 167 172 170 172 166 165 173 176 166 158 157 148 142 141 139 140 134 131 132 131 132 132 132 135 141 139 136 131 126 124 124 119 116 115 109 109 107 103 105 101 100 102 99 102 106 102 97 100 100 79 64 48 26 20 26 15
119 112 118 220 180 236 166 217 244 143 223 176 171 187 159 173 138 201 108 174 131 73 6 16 55 19 66 116 136 144 153 158 156 153 153 160 166 164 166 165 169 164 174 174 177 176 174 171 179 176 168 161 153 148 149 148 151 144 145 142 141 144 149 147 153 150 146 139 140 133 130 131 134 133 133 132 123 119 121 117 112 107 108 105 105 107 106 104 110 109 83 54 38 23 16 4 359
234 124 226 247 212 248 227 213 241 244 183 141 150 208 141 179 142 160 146 165 177 154 154 352 113 124 123 136 143 151 160 165 167 161 164 166 168 166 168 171 174 176 174 178 174 182 173 174 183 183 173 166 160 159 154 157 157 156 160 153 148 154 159 164 165 162 153 150 152 146 135 131 130 128 135 127 120 118 121 117 118 118 114 110 110 94 88 100 110 83 54 43 37 15 3 352 351
277 134 193 228 201 7 283 141 276 269 198 167 168 144 141 196 186 129 140 111 237 237 204 165 174 155 150 153 153 156 164 169 175 171 172 174 174 175 176 177 176 174 173 168 168 182 183 179 177 185 179 171 166 163 160 167 165 163 165 163 160 163 167 173 177 165 167 164 165 161 147 133 134 140 140 134 131 134 131 133 130 131 132 131 115 113 74 61 81 73 29 34 35 4 346 334 345
355 220 210 197 115 214 264 284 273 281 78 138 130 141 193 117 71 133 156 167 200 202 205 204 156 157 152 159 165 161 170 176 182 177 184 181 177 178 174 174 160 162 161 170 180 180 185 183 178 178 179 178 176 173 174 168 165 171 171 173 168 174 174 180 188 174 178 181 173 167 143 141 150 154 153 148 148 151 151 161 166 149 143 162 155 143 143 109 89 70 47 20 311 340 319 299 294
326 308 259 236 215 233 296 319 342 13 133 156 160 191 107 155 173 188 177 187 227 192 173 172 164 166 166 159 158 167 172 180 187 190 185 187 187 181 179 176 172 176 175 181 176 185 184 183 182 171 179 181 184 176 170 170 181 178 174 173 171 184 183 180 200 189 189 182 178 165 154 164 162 172 168 162 161 166 170 175 177 175 169 177 205 150 182 216 164 155 90 300 314 314 305 300 288
230 254 329 311 169 206 315 290 354 6 177 187 185 124 143 153 167 184 197 242 240 220 161 169 169 150 143 152 170 171 177 181 191 193 190 190 186 187 179 177 187 174 176 176 175 181 185 187 182 173 178 180 185 178 175 180 180 177 183 176 186 183 179 192 198 201 185 183 177 176 168 167 169 176 180 171 178 171 184 188 183 180 185 200 201 184 179 222 246 202 200 273 262 239 244 289 318
249 257 261 257 281 227 294 299 358 55 176 305 135 141 183 166 169 117 221 240 243 172 135 139 144 151 162 163 174 177 179 185 189 194 194 196 195 188 188 180 179 177 187 186 176 178 189 188 182 180 177 181 182 177 182 184 179 180 179 185 191 184 192 194 196 204 183 184 184 171 164 167 178 177 176 186 167 189 188 187 190 199 194 201 176 226 191 204 236 231 236 255 267 260 230 248 241
352 284 319 304 272 287 298 341 339 2 16 137 115 65 11 260 336 187 212 220 222 102 140 148 151 157 169 178 177 177 182 187 188 189 195 190 184 184 202 192 185 190 196 191 183 185 184 186 186 185 179 181 179 177 186 181 182 184 188 190 191 181 199 196 191 201 196 178 189 177 176 173 178 177 186 179 173 199 193 185 200 205 207 187 177 205 213 184 212 215 255 276 253 244 261 272 277
299 309 300 256 277 273 57 147 300 315 112 277 141 184 154 330 70 238 229 200 99 113 145 157 157 172 179 178 182 185 182 188 191 189 182 190 191 193 199 199 197 200 190 198 198 191 180 181 191 189 181 180 175 183 183 187 182 189 191 192 187 190 196 196 192 197 199 189 187 185 183 181 176 182 178 180 194 196 198 185 203 202 213 207 189 210 195 195 202 197 201 219 233 234 250 277 296
287 300 303 356 339 313 325 79 272 343 21 100 120 87 302 325 49 225 211 172 152 132 149 162 174 176 182 182 184 189 192 195 188 177 191 190 196 194 197 198 203 199 195 202 199 193 182 186 188 193 185 180 180 185 183 186 188 190 190 190 194 196 188 193 195 193 199 196 191 185 184 187 183 184 182 181 191 191 195 196 199 187 209 210 197 202 188 200 199 211 203 213 240 223 261 320 334
267 293 314 298 348 316 266 183 221 91 230 156 150 78 316 305 229 227 208 141 158 149 160 168 179 185 184 185 189 190 200 191 186 197 202 199 193 192 199 199 198 202 204 199 198 192 196 189 185 192 188 182 184 187 187 190 186 189 189 192 193 195 193 189 191 193 192 198 190 188 188 188 186 181 193 190 192 194 194 190 187 196 197 193 197 196 185 195 204 224 258 242 264 146 105 294 346
306 241 206 320 348 317 257 238 56 136 257 58 285 202 257 235 235 253 198 144 130 144 163 180 183 183 187 187 192 202 202 187 199 207 204 200 198 198 200 198 198 201 197 200 196 200 197 194 187 183 190 187 188 187 187 189 188 186 189 191 190 189 194 192 195 192 184 185 189 191 191 189 190 189 183 197 189 195 203 199 192 200 199 187 185 177 184 184 203 206 232 165 214 201 221 264 330
244 254 210 230 39 274 300 200 180 154 235 184 89 209 268 261 256 236 186 159 155 174 184 188 190 190 189 194 196 202 208 201 202 206 207 204 203 202 204 202 198 200 194 196 199 201 196 194 186 190 187 191 189 188 187 192 188 181 182 187 189 188 190 194 195 192 189 189 184 190 192 193 188 191 194 181 191 190 199 212 212 208 190 178 176 191 183 191 192 211 186 195 223 238 236 250 208
268 177 245 301 167 276 298 120 171 160 287 66 109 262 245 264 272 263 185 176 170 176 187 193 196 199 198 197 202 206 211 208 218 217 212 208 203 203 204 207 200 199 199 197 198 197 200 198 189 192 185 191 194 191 188 187 187 185 183 183 183 188 189 195 195 196 196 192 191 196 196 193 194 188 191 188 180 187 193 206 217 210 193 179 188 184 179 195 203 210 214 187 210 249 252 263 218
302 202 285 252 176 242 344 214 193 177 133 359 158 209 316 301 286 291 195 172 185 180 193 197 201 204 203 204 205 208 210 223 226 220 216 213 211 207 207 207 203 202 199 195 194 194 199 199 193 193 189 193 193 194 189 186 184 184 184 184 186 184 192 198 198 197 199 201 200 198 198 199 200 193 184 188 176 184 192 202 216 207 191 187 188 185 194 206 189 208 223 215 197 225 224 254 275
257 68 218 208 186 201 247 294 249 202 157 201 223 199 238 235 292 310 185 196 179 190 197 204 204 203 206 208 210 208 209 210 215 213 214 210 211 210 209 207 206 198 201 198 195 191 196 194 195 195 192 193 191 191 190 187 187 184 183 185 184 190 197 196 197 194 202 204 204 206 196 199 206 199 189 182 182 184 189 194 206 201 191 192 190 180 206 198 202 192 220 224 205 205 227 234 255
196 195 235 265 272 202 214 165 234 141 253 186 193 239 265 272 281 301 228 187 194 207 199 203 206 208 210 210 212 215 212 213 221 214 210 207 208 209 209 206 206 198 198 199 196 197 191 192 192 195 190 191 191 187 187 185 183 187 183 180 189 198 199 199 194 200 203 200 204 206 200 197 205 204 199 188 186 183 189 197 198 198 189 190 186 191 201 198 207 205 209 232 223 221 214 223 234
210 181 189 208 206 218 215 229 277 177 169 212 181 208 239 251 261 266 256 206 199 232 256 250 230 223 217 214 217 215 216 224 225 214 209 209 208 206 206 204 205 202 197 195 197 195 194 192 191 194 193 186 183 182 175 181 181 185 189 195 202 203 199 199 203 205 197 202 203 201 203 201 200 208 205 201 198 194 193 195 200 191 188 181 184 187 207 201 205 207 229 214 231 256 246 241 239
206 227 227 233 219 257 284 279 258 142 105 220 206 224 235 249 248 246 245 167 235 255 242 231 226 218 217 220 218 218 218 223 219 208 203 208 210 208 208 203 204 203 203 193 192 198 197 193 189 198 195 183 179 180 183 181 186 191 199 199 204 199 202 200 205 205 201 204 199 201 202 203 201 206 213 207 204 202 201 196 194 196 189 189 191 203 204 207 205 202 206 192 209 234 255 220 229
237 251 284 281 213 244 245 208 338 308 166 274 255 246 261 259 270 261 216 163 234 225 232 236 228 220 220 217 224 222 223 252 227 209 223 219 215 212 206 206 201 201 210 199 196 199 199 196 195 197 190 193 193 189 186 189 193 194 193 204 200 194 195 200 208 207 207 196 198 203 203 202 202 204 206 206 205 197 198 203 201 197 185 199 205 211 208 204 197 202 178 219 225 212 238 203 205
244 211 243 264 261 244 277 247 286 299 144 253 344 203 255 255 251 258 170 204 231 224 214 219 212 219 221 221 227 231 240 241 223 227 218 212 208 206 201 205 208 207 204 202 203 199 199 197 200 196 195 196 200 196 189 199 198 197 193 197 195 198 216 209 209 204 195 200 205 204 202 201 202 206 203 204 205 207 204 199 205 199 194 191 202 216 202 207 200 203 193 204 226 236 238 239 193
234 226 213 236 250 149 265 259 149 348 134 245 127 221 277 288 276 254 232 202 238 234 220 232 218 216 215 217 211 211 223 231 226 216 216 213 205 203 203 207 208 204 206 207 208 206 201 200 198 198 198 199 198 198 201 204 199 196 202 169 182 171 188 191 199 201 203 207 213 206 209 200 200 205 202 203 206 204 204 206 202 195 197 193 197 206 203 214 201 209 207 218 203 234 222 243 204
234 195 207 244 255 243 185 214 135 51 21 91 83 6 306 274 267 290 263 226 248 260 236 243 247 242 244 276 281 226 218 215 222 224 227 215 209 210 206 207 198 203 206 205 204 204 202 199 199 198 197 198 198 197 200 197 175 169 168 106 107 137 53 150 192 222 210 209 211 210 211 196 200 202 200 203 201 205 203 204 199 198 193 195 196 205 203 209 207 208 202 201 197 214 239 222 216
254 223 199 216 238 220 331 144 116 40 302 286 172 349 290 284 262 241 254 354 249 249 237 248 235 240 240 240 236 233 235 230 219 215 210 206 208 211 212 205 204 209 208 207 203 203 200 199 199 199 197 197 199 198 196 184 185 185 176 186 194 197 208 190 205 210 203 202 211 207 202 201 202 203 199 199 200 202 204 202 200 194 196 196 199 208 211 205 208 202 208 205 212 215 228 228 220
224 257 195 211 211 139 130 155 84 142 183 279 83 182 259 326 289 245 264 255 253 265 224 250 241 242 233 230 233 229 222 229 238 245 238 224 222 211 212 208 209 209 213 200 203 204 203 201 199 197 196 197 199 197 188 184 189 194 196 201 204 205 210 221 222 212 200 213 204 205 209 202 205 203 202 197 198 200 202 199 198 197 197 197 198 200 209 209 209 210 208 206 213 213 212 241 230
231 249 170 159 129 152 189 168 164 189 261 341 46 128 193 285 278 261 284 254 271 288 268 255 250 237 232 231 232 229 224 221 218 223 220 216 211 205 208 210 208 213 204 197 206 204 204 203 196 200 200 199 198 191 187 189 193 198 201 207 207 210 212 220 202 209 189 181 202 215 204 206 203 204 199 197 196 194 197 197 196 197 197 199 188 199 208 212 209 216 207 215 220 214 210 225 237
217 208 160 173 179 189 165 155 171 268 100 270 308 233 226 253 267 301 300 283 294 270 255 252 246 238 235 236 240 238 230 223 216 221 220 215 211 215 218 213 214 209 200 203 203 203 203 202 202 201 205 198 198 190 188 195 200 199 202 204 212 220 216 217 189 191 194 192 206 211 208 207 204 206 204 198 197 196 194 199 196 198 201 201 190 201 212 209 208 209 206 209 214 219 211 227 241
260 134 74 73 64 65 119 116 111 358 99 248 228 190 209 274 273 322 334 242 261 260 261 253 243 242 232 230 235 232 230 231 230 232 231 225 221 218 214 218 213 211 207 205 207 202 204 199 201 199 207 199 195 195 192 197 200 198 201 205 210 213 198 196 175 202 205 192 213 211 206 201 201 204 206 204 203 205 202 204 203 202 205 204 200 205 206 211 215 213 205 203 206 217 217 221 226
115 112 90 43 42 50 35 72 110 70 266 246 229 252 177 282 251 220 203 223 204 238 279 280 268 262 259 249 245 239 229 229 231 236 241 239 240 237 221 213 216 212 209 198 201 199 195 197 199 203 207 198 196 197 192 200 199 200 205 204 207 204 192 182 190 216 207 196 213 209 200 202 198 203 192 203 202 198 203 199 204 208 205 202 198 202 210 204 203 204 206 208 211 216 220 219 226
149 133 128 89 356 17 24 337 40 193 257 272 260 210 152 211 289 276 236 265 234 202 231 265 286 279 260 246 242 236 223 220 221 224 237 238 246 233 210 220 214 209 198 207 206 199 199 200 198 207 208 202 199 199 197 201 198 204 208 203 204 199 180 187 198 208 198 199 195 197 194 183 211 215 212 208 210 204 202 203 205 206 208 208 214 205 197 198 197 200 210 211 218 219 227 224 227
96 110 125 152 221 47 236 15 232 222 212 289 346 161 339 249 225 260 268 261 264 224 225 237 252 273 284 276 258 244 227 216 210 215 214 213 209 204 205 216 203 200 203 201 203 200 201 201 201 204 212 203 202 198 200 201 199 203 202 201 199 183 185 193 201 207 194 193 183 178 173 196 194 195 216 209 214 199 197 198 194 206 213 206 203 193 203 203 208 210 214 217 214 217 221 222 224
128 152 154 142 146 170 213 257 309 315 283 261 241 351 267 252 283 241 247 249 246 251 222 241 248 260 269 269 273 264 235 212 215 210 207 205 205 208 207 201 204 207 204 201 202 199 200 202 204 206 216 200 198 195 200 200 204 200 192 187 184 178 192 197 204 202 190 188 182 190 190 192 195 205 196 208 200 198 203 205 188 193 203 194 195 204 204 203 199 204 206 213 215 214 206 216 229
208 133 160 177 139 159 205 186 207 217 202 267 277 91 233 127 247 239 249 269 287 283 272 259 254 256 261 270 279 281 264 247 227 214 211 209 213 209 211 209 207 208 206 204 200 204 195 206 202 209 214 204 195 199 193 200 198 187 184 185 184 185 193 198 202 187 175 181 188 188 198 189 191 201 192 205 189 192 202 205 202 194 198 196 182 192 197 199 205 213 216 222 228 226 246 256 256
207 175 81 144 213 129 175 204 161 196 220 289 212 210 188 174 257 283 236 267 281 279 293 323 286 285 294 289 252 237 240 247 243 240 249 247 228 217 221 229 227 217 214 211 207 198 198 208 203 209 209 199 197 193 198 192 188 177 178 182 190 187 187 178 170 171 177 176 176 180 188 187 194 181 201 170 190 179 187 197 197 201 190 184 172 198 243 216 213 217 231 232 244 228 239 239 244
227 116 205 216 157 105 97 59 122 115 44 252 155 314 291 298 315 279 305 302 278 314 287 300 281 280 311 265 261 261 261 257 258 249 247 252 250 236 218 213 218 219 217 214 211 200 199 192 190 200 206 194 193 191 184 180 172 170 183 179 169 168 169 176 178 177 175 178 168 174 169 187 176 174 178 180 175 190 194 192 194 200 199 198 187 193 216 231 242 255 262 259 255 241 226 246 245
105 174 227 192 118 108 141 216 346 174 202 256 104 213 294 7 275 328 340 310 283 274 256 249 267 274 253 242 242 246 249 253 261 256 250 244 237 225 218 219 209 205 208 214 220 212 203 195 187 189 190 192 200 181 176 172 166 170 164 164 169 172 170 170 168 173 170 155 162 159 148 146 177 183 160 170 177 176 174 172 185 197 208 205 213 222 217 219 215 213 211 219 227 222 233 240 237
147 191 204 134 226 238 288 102 228 182 256 268 284 244 253 181 238 332 300 240 270 274 337 313 274 258 244 249 254 262 271 280 263 251 246 242 234 230 215 212 213 208 208 206 204 194 195 196 197 189 193 191 179 175 166 160 161 161 164 162 158 154 152 148 144 141 146 154 161 160 159 157 122 126 123 119 104 111 131 156 168 176 174 200 219 226 216 225 222 237 252 242 236 214 222 237 236
65 50 92 124 106 179 141 204 178 141 246 141 291 98 236 202 215 198 254 273 262 268 298 268 246 235 229 234 242 245 254 251 246 240 238 234 232 226 211 197 191 196 197 206 190 175 184 185 171 181 166 155 150 156 154 152 156 143 141 132 127 130 135 137 143 138 137 145 153 142 128 126 140 127 121 120 126 138 144 127 98 112 93 64 57 343 147 226 245 221 235 248 262 251 250 241 247
207 127 211 221 357 226 112 75 143 187 185 191 200 272 272 249 210 184 215 228 240 241 265 267 264 253 243 238 233 237 239 238 235 229 230 240 230 239 252 230 196 160 178 168 168 178 185 169 171 168 159 155 152 152 144 148 140 138 139 142 133 123 117 116 108 112 115 118 126 134 134 130 108 101 116 114 119 130 121 114 109 96 109 122 126 83 23 96 136 253 302 257 265 236 235 260 260
179 177 194 186 143 149 172 241 41 114 166 236 150 258 266 267 184 203 214 232 228 236 217 265 274 265 249 249 241 227 236 236 231 239 235 244 200 143 73 73 89 120 141 168 176 145 151 168 166 152 141 150 145 145 138 138 134 136 138 138 133 123 116 104 103 99 104 108 113 115 122 102 104 109 124 121 122 135 126 122 107 111 114 96 67 69 81 105 102 102 325 229 222 223 240 273 314